Regional Weather Roundup
Issued by NWS Midland/Odessa, TX

Skip options and go directly to product.
Home | Oldest Version | Previous Version | Current Version | All | Text Only | Save Text | Print | Product List | Glossary Off

Skip product version selection by date and time.   

771
ASUS44 KMAF 260710
RWRMAF
MIDLAND AREA WEATHER ROUNDUP
NATIONAL WEATHER SERVICE MIDLAND TX
200 AM CDT MON SEP 26 2016

...IN SOUTHWEST TEXAS AND SOUTHEAST NEW MEXICO...

CITY           SKY/WX    TMP DP  RH WIND       PRES   REMARKS
ALPINE         CLOUDY    56  56  98 NE12      30.32S
ANDREWS        NOT AVBL
ARTESIA        MOCLDY    59  46  63 N8        30.35R
BIG SPRING     CLOUDY    60  53  76 N13       30.27S
CARLSBAD       CLOUDY    61  49  64 NE7       30.31S
DRYDEN           N/A     65  63  93 N13       30.13F
FORT STOCKTON  CLOUDY    59  58  96 NE13      30.23F
GUAD PASS      CLOUDY    53  44  71 NE45G55   30.29F
HOBBS          CLOUDY    59  45  58 NE14      30.32S
MARFA          MIX PCPN N/A N/A N/A N10       30.28S
MIDLAND AIRPK  CLOUDY    61  52  71 NE14      30.27R
MIDLAND INTL   CLOUDY    61  52  72 NE15      30.25S
ODESSA         CLOUDY    60  50  69 NE17      30.26S
PECOS          RAIN      60  56  88 N10       30.23F
PRESIDIO       CLOUDY    67  60  78 N6        30.15F
SEMINOLE       CLOUDY    60  48  64 NE12      30.31F
SNYDER           N/A     60  52  75 N6        30.25F
WINK           CLOUDY    61  54  77 NE16      30.25F
$$
...OTHER STATIONS IN TEXAS...

CITY           SKY/WX    TMP DP  RH WIND       PRES   REMARKS
ABILENE        CLOUDY    60  58  92 N10       30.21S
AMARILLO       CLEAR     50  42  74 N7        30.37R
AUSTIN         CLOUDY    74  73  97 N8        30.05S
BROWNSVILLE    CLOUDY    80  75  84 SW5       29.92F
CORPUS CHRISTI TSTM      76  74  93 SW10      29.98R
DALLAS FTW     CLOUDY    71  65  81 N13       30.09S
DEL RIO        RAIN      70  70 100 N6        30.04F FOG
EL PASO        LGT RAIN  64  41  42 NE15G25   30.27S
HOUSTON INT    CLOUDY    73  72  96 N3        30.02S
LUBBOCK        CLOUDY    59  48  67 NE6       30.32S
SAN ANGELO     CLOUDY    65  62  90 N13       30.16F
SAN ANTONIO    LGT RAIN  72  70  93 CALM      30.05R
WACO           CLOUDY    74  73  97 N5        30.08R
WICHITA FALLS  NOT AVBL
$$
...OTHER LOCATIONS IN NEW MEXICO...

CITY           SKY/WX    TMP DP  RH WIND       PRES   REMARKS
ALAMAGORDO     CLOUDY    68  36  30 E22G31    30.27F
ALBUQUERQUE    PTCLDY    59  35  40 E14       30.42R
CANNON AFB     CLEAR     50  43  76 NE8       30.39R
CLOVIS         CLEAR     46  39  76 N10       30.39R
HOLLOMAN AFB   CLOUDY    69  41  36 SE8       30.25F
ROSWELL        PTCLDY    59  44  57 NW5       30.36R
RUIDOSO        CLOUDY    48  37  66 SE8       30.49R
SANTA FE       CLEAR     54  32  43 S5        30.46R
TRUTH OR CONSE CLOUDY    63  39  41 N9        30.32R
TUCUMCARI      CLEAR     50  33  52 NE3       30.40R
$$

USA.gov is the U.S. government's official web portal to all federal, state and local government web resources and services.